Location: Newark
(39.9500°N, 8.6833°E)
Time: 21:35:15
(UTC+00:00)

N. Korean satellite - Visible Passes

Search period start: 07 December 2019 00:00
Search period end: 17 December 2019 00:00
Orbit: 456 x 506 km, 97.2° (Epoch: 06 December)

Date Brightness Start Highest point End Pass type
(mag) Time Alt. Az. Time Alt. Az. Time Alt. Az.
07 Dec 8.5 04:46:47 10° NNE 04:49:59 31° E 04:53:07 10° SSE visible
07 Dec 8.1 16:54:08 10° S 16:57:40 42° W 17:01:13 10° NNW visible
08 Dec 9.8 04:22:19 10° NE 04:24:24 15° E 04:26:28 10° SE visible
08 Dec 7.4 05:54:46 10° N 05:57:51 28° WNW 06:00:53 10° SW visible
08 Dec 6.6 16:28:31 10° SSE 16:32:14 86° ENE 16:35:57 10° N visible
09 Dec 6.4 05:29:01 10° N 05:32:32 64° WNW 05:35:58 10° SSW visible
09 Dec 10.0 17:38:44 10° WSW 17:40:25 13° W 17:42:05 10° WNW visible
10 Dec 7.3 05:03:38 10° NNE 05:07:06 54° E 05:10:29 10° S visible
10 Dec 9.1 17:11:43 10° SSW 17:14:49 25° W 17:17:57 10° NW visible
11 Dec 8.9 04:38:39 10° NE 04:41:34 24° E 04:44:27 10° SSE visible
11 Dec 7.5 16:45:41 10° S 16:49:18 54° W 16:52:57 10° NNW visible
12 Dec 10.0 04:14:41 10° ENE 04:15:57 12° E 04:17:11 10° ESE visible
12 Dec 7.0 05:46:16 10° N 05:49:31 36° WNW 05:52:42 10° SW visible
13 Dec 6.4 05:20:37 10° N 05:24:09 84° W 05:27:36 10° SSW visible
13 Dec 9.8 17:29:41 10° SW 17:31:59 16° W 17:34:18 10° NW visible
14 Dec 7.9 04:55:21 10° NNE 04:58:41 40° E 05:01:56 10° S visible
14 Dec 8.7 17:03:05 10° SSW 17:06:25 32° W 17:09:45 10° NNW visible
15 Dec 9.3 04:30:34 10° NE 04:33:07 19° E 04:35:38 10° SE visible
15 Dec 7.7 06:03:43 10° NNW 06:06:27 22° WNW 06:09:08 10° WSW visible
15 Dec 7.0 16:37:16 10° S 16:40:56 71° W 16:44:36 10° NNW visible
16 Dec 6.7 05:37:46 10° N 05:41:08 46° WNW 05:44:25 10° SSW visible
